www.pogodaiklimat.ru

Погода и климат >> Архив погоды >> Уругвай >> Сальто


ПОГОДА в Сальто

  • Прогноз погоды в Сальто
  • Монитор погоды в Сальто

АРХИВ ПОГОДЫ в Сальто

Время (UTC), дата Ветер
(напр.,м/с)
 
Видим.   Явления Облачность Т
(С)
Тd
(С)
f
(%)
Тe
(С)
Тes
(С)
Комфортность P
(гПа)
Po
(гПа)
Тmin
(С)
Tmax
(С)
R
(мм)
R24
(мм)
S
(см)
09 9.09 ЮВ 11 3000 м гроза, ливневой дождь 10/8 200 м
[Cb calv As op]
+15.7 +15.5 99 +13 +13 1004.2 999.2
12 9.09 ЮВ 16 3000 м гроза, ливневой дождь 10/8 200 м
[Cb calv As op]
+16.5 +16.3 99 +14 +14 1002.7 997.8 75
15 9.09 ЮЗ 16 10 км в посл. час дождь {гроза} 9/8 200 м
[Frnb Ac As]
+17.0 +16.2 95 +15 +15 1003.4 998.4
18 9.09 З 17 3000 м слаб. морось {гроза, дождь} 10/8 300 м
[St As op]
+16.5 +15.6 94 +14 +14 1005.4 1000.5 11
09 10.09 Ю 8 10 км 9/6 300 м
[St Ac As]
+12.9 +11.9 94 +10 +10 1016.6 1011.5
12 10.09 Ю 7 8000 м дымка 10/8 300 м
[St Ac As]
+13.5 +12.3 92 +11 +11 1017.0 1011.9 0.0
15 10.09 ЮВ 9 10 км 10/10 300 м
[Cu Sc]
+15.2 +12.3 83 +13 +13 1017.9 1012.8
18 10.09 ЮВ 13 15 км 9/8 300 м
[Cu Sc Ac trans]
+17.5 +12.1 71 +16 +16 1016.6 1011.6
09 11.09 Ю 7 10 км 10/6 200 м
[St Ac As]
+12.0 +10.9 93 +9 +9 1015.2 1010.0
12 11.09 ЮВ 13 10 км {дождь} 10/10 300 м
[Cu Sc]
+12.8 +11.1 89 +9 +9 1016.0 1010.9 0.0
15 11.09 Ю 7 10 км 10/10 300 м
[Sc diur, vesp]
+16.0 +12.7 81 +14 +14 1015.8 1010.8
18 11.09 Ю 10 10 км 10/10 300 м
[Sc diur, vesp]
+16.2 +12.9 81 +14 +14 1013.8 1008.8
09 12.09 ЮЗ 10 10 км ясно +11.0 +9.5 90 +7 +7 1019.0 1013.8
12 12.09 ЮЗ 15 10 км 5/5 200 м
[Sc diur, vesp Ac As]
+12.2 +9.3 82 +8 +8 1021.3 1016.2
15 12.09 ЮЗ 13 10 км 8/8 300 м
[Sc Ac As]
+14.0 +8.9 71 +11 +11 1022.9 1017.8
18 12.09 ЮЗ 8 12 км 6/6 300 м
[Cu Sc]
+17.0 +10.0 63 +16 +17 1021.7 1016.6
09 13.09 ЮВ 3 10 км местами туман поземный 3/0
[Cs]
+5.0 +5.0 100 +1 +1 1023.4 1018.1
12 13.09 ЮВ 6 10 км {туман} 1/0
[Cs]
+9.7 +8.2 90 +6 +8 1024.5 1019.3
15 13.09 В 8 15 км {туман} 6/0
[Cs]
+17.1 +8.7 58 +16 +18 1023.8 1018.8
18 13.09 ЮВ 7 20 км 4/3 600 м
[Cu hum Cs]
+20.0 +7.6 45 +21 +23 комфорт 1021.0 1016.0
09 14.09 Ю 8 10 км 1/0
[Cs]
+8.2 +7.6 96 +3 +3 1017.2 1012.0
12 14.09 ЮВ 10 10 км 8/1 300 м
[Sc Ac As Cs]
+12.3 +9.6 84 +9 +9 1017.0 1011.9
15 14.09 ЮВ 8 15 км 6/4 300 м
[Cu Sc Cs]
+17.3 +12.5 73 +16 +18 1015.6 1010.6
18 14.09 В 6 18 км 6/6 600 м
[Cu Sc]
+21.5 +14.9 66 +25 +26 комфорт 1011.9 1007.0
21 14.09 СВ 4 15 км 6/4 600 м
[Cu Sc Ac As Cs]
+21.2 +14.0 63 +24 +24 комфорт 1011.0 1006.1
09 15.09 ЮВ 6 300 м туман 1/0
[Cs]
+10.0 +9.8 99 +6 +6 1008.9 1003.8
12 15.09 В 6 10 км дымка {туман} ясно +16.6 +15.7 94 +15 +17 1009.2 1004.2
15 15.09 штиль 0 10 км 8/0
[Cs]
+25.0 +17.5 63 +29 +46 душно 1007.4 1002.6
18 15.09 ЮВ 12 10 км 6/0
[Cs]
+28.4 +17.8 53 +33 +33 очень
душно
1004.5 999.7

 

Местоположение метеостанции Сальто (Уругвай): широта -31.38 долгота -57.95 высота над уровнем моря 33 м.

В архиве по умолчанию представлена погода в Сальто за последнюю неделю. Архивные данные за месяц целиком и за предыдущие месяцы, начиная с января 2011 года, Вы можете получить, выбрав интересующий диапазон дат из раскрывающегося списка и нажав кнопку "Ввод!".


*Определитесь, кто Вы:
робот инопланетянин человек

Внимание! Время в таблицах - всемирное. Для получения местного времени необходимо прибавить поправку, которая равна 0 ч.

Смотрите также архив погоды в соседних городах и на ближайших метеорологических станциях:

Погода в Конкордии (Аргентина) (11 км)
Погода в Пайсанду (Уругвай) (106 км)
Погода в Монте-Касерос (Аргентина) (128 км)
Погода в Белья-Уньоне (Уругвай) (129 км)
Погода в Янге (Уругвай) (148 км)
Погода в Артигасе (Уругвай) (178 км)
Погода в Куараи (Риу-Гранди-ду-Сул, Бразилия) (183 км)
Погода в Уругуаяне (Риу-Гранди-ду-Сул, Бразилия) (189 км)
Погода в Такуарембо (Уругвай) (190 км)
Погода в Гуалегуайчу (Аргентина) (191 км)

Пояснения к столбцам:

Ветер - указаны скорость ветра в м/с - средняя за 10 мин, порывы в срок и между сроками (в фигурных скобках) и направление, откуда дует ветер: С - северный, СВ - северо-восточный, В - восточный, ЮВ - юго-восточный, Ю - южный, ЮЗ - юго-западный, З - западный, СЗ - северо-западный.
Видимость - горизонтальная дальность видимости в метрах или километрах. При видимости от 1 до 10 км при отсутствии осадков обычно наблюдается дымка, при ухудшении видимости до 1 км и менее - туман. В сухую погоду видимость может ухудшаться дымом, пылью или мглою.
Явления - указаны атмосферные явления, наблюдавшиеся в срок или в последний час перед сроком; фигурными скобками обозначены явления, наблюдавшиеся между сроками (за 1-3 часа до срока); квадратными скобками обозначены град или гололедные отложения с указанием их диаметра в мм.
Облачность - указаны через наклонную черту общая и нижняя облачность в баллах и высота нижней границы облаков в метрах; квадратными скобками обозначены формы облаков: Ci - перистые, Cs - перисто-слоистые, Cc - перисто-кучевые, Ac - высококучевые, As - высокослоистые, Sc - слоисто-кучевые, Ns - слоисто-дождевые, Cu - кучевые, Cb - кучево-дождевые. Подробнее классификацию облаков см. в Атласе облаков (PDF).
T - Температура воздуха - температура, измеренная на высоте 2 м над землей.
Td - Температура точки росы - температура, при понижении до которой содержащийся в воздухе водяной пар достигнет насыщения.
f - Относительная влажность воздуха - влажноcть воздуха, измеренная на высоте 2 м над землей.
Te - Эффективная температура - температура, которую ощущает одетый по сезону человек в тени. Характеристика душности погоды. При расчете учитывается влияние влажности воздуха и скорости ветра на теплоощущения человека.
Tes - Эффективная температура на солнце - температура, которую ощущает человек, с поправкой на солнечный нагрев. Характеристика знойности погоды. Зависит от высоты солнца над горизонтом, облачности и скорости ветра. Ночью, в пасмурную погоду, а также при ветре 12 м/с и более поправка равна нулю.
P - Атмосферное давление - приведенное к уровню моря атмосферное давление.
Po - Атмосферное давление - измеренное на уровне метеостанции атмосферное давление.
Tmin - Минимальная температура - минимум температуры воздуха на высоте 2 м над землей.
Tmax - Максимальная температура - максимум температуры воздуха на высоте 2 м над землей.
R - Количество осадков - Количество выпавших осадков за период времени, мм. При наведении курсора мыши на число - период времени, за который выпало указанное количество осадков.
R24 - Количество осадков - Количество выпавших осадков за 24 часа, мм.
S - Снежный покров - Высота снежного покрова, см. При наведении курсора мыши на число - состояние снежного покрова и степень покрытия местности в баллах.